PRIVATE WETTERSTATION BILLIGHEIM-ALLFELD                       ZURCK
Wetterdaten: Donnerstag, 02.06.2016
Datum Zeit Temp. A. Temp. A. min Temp. A. max Feuchte A. Luftdruck Regen Wind Richtung Richtung Sonnenschein ET Solar Taupunkt Windchill Windben Empfang
02.06.2016 00:00 14,2 C 14,2 C 14,2 C 91 % 1010,2 hPa 0,4 l/m 4,8 km/h (1 Bft) S-SO 157 0 min 0,000 mm 0 W/m 12,8 C 14,2 C 14,5 km/h (3 Bft) 100 %
02.06.2016 00:10 14,2 C 14,1 C 14,2 C 91 % 1010,2 hPa 0,2 l/m 4,8 km/h (1 Bft) S 180 0 min 0,000 mm 0 W/m 12,8 C 14,2 C 16,1 km/h (3 Bft) 100 %
02.06.2016 00:20 14,1 C 14,1 C 14,2 C 91 % 1010,2 hPa 0,4 l/m 6,4 km/h (2 Bft) S 180 0 min 0,000 mm 0 W/m 12,7 C 14,1 C 16,1 km/h (3 Bft) 100 %
02.06.2016 00:30 14,1 C 14,1 C 14,1 C 91 % 1010,0 hPa 0,0 l/m 3,2 km/h (1 Bft) S 180 0 min 0,000 mm 0 W/m 12,7 C 14,1 C 9,7 km/h (2 Bft) 100 %
02.06.2016 00:40 14,1 C 14,1 C 14,1 C 90 % 1010,0 hPa 0,4 l/m 3,2 km/h (1 Bft) S 180 0 min 0,000 mm 0 W/m 12,5 C 14,1 C 14,5 km/h (3 Bft) 100 %
02.06.2016 00:50 14,1 C 14,1 C 14,1 C 90 % 1009,9 hPa 0,0 l/m 4,8 km/h (1 Bft) S 180 0 min 0,000 mm 0 W/m 12,5 C 14,1 C 14,5 km/h (3 Bft) 100 %
02.06.2016 01:00 14,1 C 14,1 C 14,1 C 90 % 1009,8 hPa 0,2 l/m 8,0 km/h (2 Bft) S 180 0 min 0,000 mm 0 W/m 12,5 C 13,2 C 17,7 km/h (3 Bft) 100 %
02.06.2016 01:10 14,1 C 14,1 C 14,1 C 90 % 1009,8 hPa 0,2 l/m 4,8 km/h (1 Bft) S-SO 157 0 min 0,000 mm 0 W/m 12,5 C 14,1 C 14,5 km/h (3 Bft) 100 %
02.06.2016 01:20 14,0 C 14,0 C 14,1 C 90 % 1009,7 hPa 0,0 l/m 4,8 km/h (1 Bft) S-SO 157 0 min 0,000 mm 0 W/m 12,4 C 14,0 C 12,9 km/h (3 Bft) 100 %
02.06.2016 01:30 14,0 C 14,0 C 14,0 C 90 % 1009,7 hPa 0,2 l/m 4,8 km/h (1 Bft) S 180 0 min 0,000 mm 0 W/m 12,4 C 14,0 C 17,7 km/h (3 Bft) 100 %
02.06.2016 01:40 14,0 C 14,0 C 14,0 C 90 % 1009,7 hPa 0,0 l/m 6,4 km/h (2 Bft) S 180 0 min 0,000 mm 0 W/m 12,4 C 14,0 C 17,7 km/h (3 Bft) 100 %
02.06.2016 01:50 14,0 C 14,0 C 14,0 C 90 % 1009,6 hPa 0,2 l/m 6,4 km/h (2 Bft) S 180 0 min 0,000 mm 0 W/m 12,4 C 14,0 C 16,1 km/h (3 Bft) 100 %
02.06.2016 02:00 14,0 C 14,0 C 14,0 C 90 % 1009,5 hPa 0,0 l/m 4,8 km/h (1 Bft) S-SO 157 0 min 0,000 mm 0 W/m 12,4 C 14,0 C 16,1 km/h (3 Bft) 100 %
02.06.2016 02:10 14,0 C 14,0 C 14,0 C 90 % 1009,5 hPa 0,2 l/m 4,8 km/h (1 Bft) S-SO 157 0 min 0,000 mm 0 W/m 12,4 C 14,0 C 17,7 km/h (3 Bft) 100 %
02.06.2016 02:20 13,9 C 13,9 C 14,0 C 90 % 1009,5 hPa 0,2 l/m 4,8 km/h (1 Bft) S-SO 157 0 min 0,000 mm 0 W/m 12,3 C 13,9 C 17,7 km/h (3 Bft) 100 %
02.06.2016 02:30 13,8 C 13,8 C 14,0 C 91 % 1009,6 hPa 0,2 l/m 12,9 km/h (3 Bft) S-SW 202 0 min 0,000 mm 0 W/m 12,4 C 10,5 C 30,6 km/h (5 Bft) 100 %
02.06.2016 02:40 13,8 C 13,8 C 13,8 C 91 % 1009,5 hPa 0,2 l/m 9,7 km/h (2 Bft) S-SW 202 0 min 0,000 mm 0 W/m 12,4 C 11,9 C 19,3 km/h (3 Bft) 100 %
02.06.2016 02:50 13,8 C 13,7 C 13,8 C 91 % 1009,4 hPa 0,0 l/m 8,0 km/h (2 Bft) S 180 0 min 0,000 mm 0 W/m 12,4 C 12,8 C 17,7 km/h (3 Bft) 100 %
02.06.2016 03:00 13,7 C 13,7 C 13,8 C 91 % 1009,4 hPa 0,0 l/m 6,4 km/h (2 Bft) S-SO 157 0 min 0,025 mm 0 W/m 12,3 C 13,7 C 11,3 km/h (2 Bft) 100 %
02.06.2016 03:10 13,7 C 13,7 C 13,8 C 91 % 1009,3 hPa 0,0 l/m 6,4 km/h (2 Bft) S-SW 202 0 min 0,000 mm 0 W/m 12,3 C 13,7 C 16,1 km/h (3 Bft) 100 %
02.06.2016 03:20 13,7 C 13,7 C 13,7 C 90 % 1009,2 hPa 0,2 l/m 8,0 km/h (2 Bft) S-SW 202 0 min 0,000 mm 0 W/m 12,1 C 12,7 C 20,9 km/h (4 Bft) 100 %
02.06.2016 03:30 13,7 C 13,7 C 13,7 C 91 % 1009,1 hPa 0,0 l/m 4,8 km/h (1 Bft) S-SW 202 0 min 0,000 mm 0 W/m 12,3 C 13,7 C 11,3 km/h (2 Bft) 99 %
02.06.2016 03:40 13,7 C 13,7 C 13,7 C 91 % 1009,0 hPa 0,0 l/m 3,2 km/h (1 Bft) S-SO 157 0 min 0,000 mm 0 W/m 12,3 C 13,7 C 9,7 km/h (2 Bft) 100 %
02.06.2016 03:50 13,7 C 13,7 C 13,7 C 91 % 1008,9 hPa 0,2 l/m 4,8 km/h (1 Bft) S-SW 202 0 min 0,000 mm 0 W/m 12,3 C 13,7 C 12,9 km/h (3 Bft) 100 %
02.06.2016 04:00 13,7 C 13,7 C 13,7 C 91 % 1008,8 hPa 0,2 l/m 6,4 km/h (2 Bft) S 180 0 min 0,000 mm 0 W/m 12,3 C 13,7 C 16,1 km/h (3 Bft) 100 %
02.06.2016 04:10 13,7 C 13,7 C 13,7 C 91 % 1008,8 hPa 0,2 l/m 3,2 km/h (1 Bft) S-SW 202 0 min 0,000 mm 0 W/m 12,3 C 13,7 C 16,1 km/h (3 Bft) 100 %
02.06.2016 04:20 13,7 C 13,7 C 13,7 C 90 % 1008,8 hPa 0,4 l/m 3,2 km/h (1 Bft) S-SW 202 0 min 0,000 mm 0 W/m 12,1 C 13,7 C 11,3 km/h (2 Bft) 100 %
02.06.2016 04:30 13,7 C 13,7 C 13,7 C 90 % 1008,8 hPa 0,0 l/m 3,2 km/h (1 Bft) S 180 0 min 0,000 mm 0 W/m 12,1 C 13,7 C 12,9 km/h (3 Bft) 100 %
02.06.2016 04:40 13,7 C 13,7 C 13,7 C 90 % 1008,7 hPa 0,4 l/m 6,4 km/h (2 Bft) S 180 0 min 0,000 mm 0 W/m 12,1 C 13,7 C 17,7 km/h (3 Bft) 100 %
02.06.2016 04:50 13,7 C 13,6 C 13,7 C 90 % 1008,7 hPa 0,0 l/m 4,8 km/h (1 Bft) S-SW 202 0 min 0,000 mm 0 W/m 12,1 C 13,7 C 17,7 km/h (3 Bft) 100 %
02.06.2016 05:00 13,6 C 13,6 C 13,7 C 90 % 1008,8 hPa 0,4 l/m 3,2 km/h (1 Bft) SW 225 0 min 0,000 mm 0 W/m 12,0 C 13,6 C 8,0 km/h (2 Bft) 100 %
02.06.2016 05:10 13,7 C 13,7 C 13,7 C 90 % 1008,9 hPa 0,2 l/m 0,0 km/h (0 Bft) S 180 0 min 0,000 mm 0 W/m 12,1 C 13,7 C 4,8 km/h (1 Bft) 100 %
02.06.2016 05:20 13,7 C 13,7 C 13,7 C 90 % 1008,8 hPa 0,2 l/m 0,0 km/h (0 Bft) S 180 0 min 0,000 mm 0 W/m 12,1 C 13,7 C 1,6 km/h (1 Bft) 100 %
02.06.2016 05:30 13,7 C 13,7 C 13,7 C 90 % 1008,8 hPa 0,2 l/m 3,2 km/h (1 Bft) S-SO 157 0 min 0,000 mm 0 W/m 12,1 C 13,7 C 9,7 km/h (2 Bft) 100 %
02.06.2016 05:40 13,7 C 13,7 C 13,7 C 90 % 1008,9 hPa 0,0 l/m 0,0 km/h (0 Bft) S-SO 157 0 min 0,000 mm 0 W/m 12,1 C 13,7 C 1,6 km/h (1 Bft) 99 %
02.06.2016 05:50 13,7 C 13,7 C 13,7 C 90 % 1009,0 hPa 0,0 l/m 0,0 km/h (0 Bft) S-SO 157 0 min 0,000 mm 0 W/m 12,1 C 13,7 C 4,8 km/h (1 Bft) 100 %
02.06.2016 06:00 13,7 C 13,7 C 13,7 C 91 % 1009,0 hPa 0,0 l/m 0,0 km/h (0 Bft) S-SO 157 0 min 0,000 mm 0 W/m 12,3 C 13,7 C 6,4 km/h (2 Bft) 99 %
02.06.2016 06:10 13,7 C 13,7 C 13,7 C 91 % 1008,9 hPa 0,0 l/m 0,0 km/h (0 Bft) N 0 0 min 0,000 mm 0 W/m 12,3 C 13,7 C 0,0 km/h (0 Bft) 90 %
02.06.2016 06:20 13,7 C 13,7 C 13,7 C 91 % 1009,0 hPa 0,0 l/m 0,0 km/h (0 Bft) N 0 0 min 0,000 mm 0 W/m 12,3 C 13,7 C 0,0 km/h (0 Bft) 100 %
02.06.2016 06:30 13,7 C 13,7 C 13,7 C 91 % 1009,1 hPa 0,0 l/m 0,0 km/h (0 Bft) S-SO 157 0 min 0,000 mm 0 W/m 12,3 C 13,7 C 1,6 km/h (1 Bft) 99 %
02.06.2016 06:40 13,7 C 13,7 C 13,7 C 91 % 1009,1 hPa 0,0 l/m 0,0 km/h (0 Bft) N 0 0 min 0,000 mm 0 W/m 12,3 C 13,7 C 0,0 km/h (0 Bft) 100 %
02.06.2016 06:50 13,7 C 13,7 C 13,8 C 91 % 1009,1 hPa 0,0 l/m 0,0 km/h (0 Bft) S-SO 157 0 min 0,000 mm 0 W/m 12,3 C 13,7 C 1,6 km/h (1 Bft) 100 %
02.06.2016 07:00 13,7 C 13,7 C 13,7 C 91 % 1009,1 hPa 0,0 l/m 0,0 km/h (0 Bft) S-SO 157 0 min 0,000 mm 0 W/m 12,3 C 13,7 C 1,6 km/h (1 Bft) 100 %
02.06.2016 07:10 13,8 C 13,7 C 13,8 C 91 % 1009,1 hPa 0,0 l/m 1,6 km/h (1 Bft) S-SO 157 0 min 0,000 mm 0 W/m 12,4 C 13,8 C 3,2 km/h (1 Bft) 100 %
02.06.2016 07:20 13,9 C 13,8 C 13,9 C 91 % 1009,1 hPa 0,0 l/m 0,0 km/h (0 Bft) S-SO 157 0 min 0,000 mm 0 W/m 12,5 C 13,9 C 3,2 km/h (1 Bft) 100 %
02.06.2016 07:30 13,8 C 13,8 C 13,9 C 91 % 1009,1 hPa 0,0 l/m 0,0 km/h (0 Bft) S-SO 157 0 min 0,000 mm 0 W/m 12,4 C 13,8 C 1,6 km/h (1 Bft) 100 %
02.06.2016 07:40 13,9 C 13,8 C 13,9 C 91 % 1009,1 hPa 0,0 l/m 0,1 km/h (0 Bft) S-SO 159 0 min 0,000 mm 11 W/m 12,5 C 13,9 C 1,6 km/h (1 Bft) 100 %
02.06.2016 07:50 14,0 C 13,9 C 14,0 C 91 % 1009,2 hPa 0,0 l/m 0,2 km/h (0 Bft) S-SO 159 0 min 0,000 mm 28 W/m 12,6 C 14,0 C 3,2 km/h (1 Bft) 100 %
02.06.2016 08:00 14,1 C 14,0 C 14,1 C 91 % 1009,1 hPa 0,0 l/m 0,0 km/h (0 Bft) S-SO 159 0 min 0,000 mm 62 W/m 12,7 C 14,1 C 1,6 km/h (1 Bft) 100 %
02.06.2016 08:10 14,2 C 14,1 C 14,2 C 91 % 1009,2 hPa 0,0 l/m 0,6 km/h (0 Bft) S-SO 159 0 min 0,000 mm 69 W/m 12,8 C 14,2 C 4,8 km/h (1 Bft) 100 %
02.06.2016 08:20 14,2 C 14,2 C 14,3 C 91 % 1009,3 hPa 0,0 l/m 1,7 km/h (1 Bft) S-SO 148 0 min 0,000 mm 132 W/m 12,8 C 14,2 C 4,8 km/h (1 Bft) 100 %
02.06.2016 08:30 14,3 C 14,2 C 14,4 C 91 % 1009,4 hPa 0,0 l/m 0,2 km/h (0 Bft) S-SO 153 0 min 0,000 mm 137 W/m 12,8 C 14,3 C 6,4 km/h (2 Bft) 100 %
02.06.2016 08:40 14,5 C 14,3 C 14,5 C 91 % 1009,3 hPa 0,0 l/m 0,0 km/h (0 Bft) S-SO 155 10 min 0,000 mm 167 W/m 13,0 C 14,5 C 1,6 km/h (1 Bft) 100 %
02.06.2016 08:50 14,6 C 14,5 C 14,6 C 91 % 1009,4 hPa 0,0 l/m 2,3 km/h (1 Bft) S-SO 150 10 min 0,000 mm 176 W/m 13,1 C 14,6 C 6,4 km/h (2 Bft) 100 %
02.06.2016 09:00 14,6 C 14,6 C 14,6 C 91 % 1009,6 hPa 0,0 l/m 0,7 km/h (0 Bft) S-SO 159 0 min 0,077 mm 72 W/m 13,1 C 14,6 C 6,4 km/h (2 Bft) 100 %
02.06.2016 09:10 14,7 C 14,6 C 14,7 C 91 % 1009,7 hPa 0,0 l/m 0,0 km/h (0 Bft) S-SO 159 0 min 0,000 mm 111 W/m 13,2 C 14,7 C 1,6 km/h (1 Bft) 100 %
02.06.2016 09:20 14,8 C 14,7 C 14,8 C 91 % 1009,7 hPa 0,0 l/m 0,0 km/h (0 Bft) S-SO 154 10 min 0,000 mm 174 W/m 13,3 C 14,8 C 1,6 km/h (1 Bft) 100 %
02.06.2016 09:30 14,9 C 14,8 C 14,9 C 90 % 1009,7 hPa 0,0 l/m 1,0 km/h (0 Bft) S-SO 155 10 min 0,000 mm 225 W/m 13,3 C 14,9 C 4,8 km/h (1 Bft) 100 %
02.06.2016 09:40 15,1 C 14,8 C 15,1 C 91 % 1009,7 hPa 0,0 l/m 0,0 km/h (0 Bft) S-SO 147 10 min 0,000 mm 265 W/m 13,6 C 15,1 C 1,6 km/h (1 Bft) 100 %
02.06.2016 09:50 15,1 C 15,1 C 15,1 C 90 % 1009,6 hPa 0,0 l/m 0,0 km/h (0 Bft) SO 146 10 min 0,000 mm 211 W/m 13,5 C 15,1 C 1,6 km/h (1 Bft) 100 %
02.06.2016 10:00 15,1 C 15,1 C 15,1 C 91 % 1009,6 hPa 0,0 l/m 3,3 km/h (1 Bft) SO 140 10 min 0,101 mm 186 W/m 13,6 C 15,1 C 8,0 km/h (2 Bft) 99 %
02.06.2016 10:10 15,1 C 15,1 C 15,1 C 91 % 1009,5 hPa 0,0 l/m 0,9 km/h (0 Bft) SO 143 0 min 0,000 mm 79 W/m 13,6 C 15,1 C 6,4 km/h (2 Bft) 100 %
02.06.2016 10:20 14,9 C 14,9 C 15,1 C 91 % 1009,5 hPa 0,0 l/m 0,0 km/h (0 Bft) O-SO 121 0 min 0,000 mm 70 W/m 13,4 C 14,9 C 1,6 km/h (1 Bft) 100 %
02.06.2016 10:30 15,1 C 14,9 C 15,1 C 91 % 1009,6 hPa 0,0 l/m 0,0 km/h (0 Bft) S-SO 151 10 min 0,000 mm 165 W/m 13,6 C 15,1 C 0,0 km/h (0 Bft) 100 %
02.06.2016 10:40 15,3 C 15,1 C 15,3 C 91 % 1009,5 hPa 0,0 l/m 0,0 km/h (0 Bft) S-SO 151 0 min 0,000 mm 120 W/m 13,8 C 15,3 C 0,0 km/h (0 Bft) 100 %
02.06.2016 10:50 15,6 C 15,3 C 15,6 C 91 % 1009,5 hPa 0,0 l/m 0,0 km/h (0 Bft) S-SO 151 0 min 0,000 mm 149 W/m 14,1 C 15,6 C 1,6 km/h (1 Bft) 100 %
02.06.2016 11:00 15,7 C 15,6 C 15,8 C 91 % 1009,4 hPa 0,0 l/m 0,0 km/h (0 Bft) S 180 10 min 0,076 mm 243 W/m 14,2 C 15,7 C 1,6 km/h (1 Bft) 100 %
02.06.2016 11:10 16,0 C 15,7 C 16,0 C 91 % 1009,4 hPa 0,0 l/m 0,6 km/h (0 Bft) S 188 10 min 0,000 mm 213 W/m 14,5 C 16,0 C 3,2 km/h (1 Bft) 100 %
02.06.2016 11:20 16,3 C 16,0 C 16,3 C 91 % 1009,4 hPa 0,0 l/m 2,2 km/h (1 Bft) SW 218 10 min 0,000 mm 383 W/m 14,8 C 16,3 C 8,0 km/h (2 Bft) 100 %
02.06.2016 11:30 16,5 C 16,3 C 16,5 C 90 % 1009,5 hPa 0,0 l/m 0,0 km/h (0 Bft) SW 217 10 min 0,000 mm 169 W/m 14,9 C 16,5 C 1,6 km/h (1 Bft) 100 %
02.06.2016 11:40 16,6 C 16,5 C 16,6 C 89 % 1009,5 hPa 0,0 l/m 0,0 km/h (0 Bft) SW 229 10 min 0,000 mm 197 W/m 14,8 C 16,6 C 1,6 km/h (1 Bft) 100 %
02.06.2016 11:50 16,9 C 16,6 C 16,9 C 89 % 1009,4 hPa 0,0 l/m 0,7 km/h (0 Bft) W 264 10 min 0,000 mm 281 W/m 15,1 C 16,9 C 6,4 km/h (2 Bft) 100 %
02.06.2016 12:00 17,1 C 16,9 C 17,1 C 88 % 1009,2 hPa 0,0 l/m 0,7 km/h (0 Bft) W-SW 248 10 min 0,127 mm 278 W/m 15,1 C 17,1 C 4,8 km/h (1 Bft) 100 %
02.06.2016 12:10 17,2 C 17,1 C 17,2 C 87 % 1009,3 hPa 0,0 l/m 0,3 km/h (0 Bft) SW 232 10 min 0,000 mm 290 W/m 15,0 C 17,2 C 4,8 km/h (1 Bft) 100 %
02.06.2016 12:20 17,3 C 17,2 C 17,3 C 88 % 1009,2 hPa 0,0 l/m 0,7 km/h (0 Bft) S-SW 210 10 min 0,000 mm 185 W/m 15,3 C 17,3 C 6,4 km/h (2 Bft) 100 %
02.06.2016 12:30 17,1 C 17,1 C 17,3 C 87 % 1009,3 hPa 0,0 l/m 1,4 km/h (1 Bft) S-SW 201 0 min 0,000 mm 113 W/m 14,9 C 17,1 C 8,0 km/h (2 Bft) 100 %
02.06.2016 12:40 16,9 C 16,9 C 17,1 C 88 % 1009,4 hPa 0,0 l/m 0,4 km/h (0 Bft) S-SW 200 10 min 0,000 mm 163 W/m 14,9 C 16,9 C 4,8 km/h (1 Bft) 100 %
02.06.2016 12:50 16,8 C 16,8 C 16,9 C 88 % 1009,3 hPa 0,0 l/m 0,6 km/h (0 Bft) S-SW 200 0 min 0,000 mm 118 W/m 14,8 C 16,8 C 4,8 km/h (1 Bft) 100 %
02.06.2016 13:00 16,8 C 16,8 C 16,8 C 89 % 1009,4 hPa 0,0 l/m 0,0 km/h (0 Bft) S-SW 200 0 min 0,102 mm 67 W/m 15,0 C 16,8 C 3,2 km/h (1 Bft) 91 %
02.06.2016 13:10 16,8 C 16,7 C 16,8 C 88 % 1009,4 hPa 0,0 l/m 0,0 km/h (0 Bft) S-SW 200 0 min 0,000 mm 35 W/m 14,8 C 16,8 C 0,0 km/h (0 Bft) 100 %
02.06.2016 13:20 16,7 C 16,7 C 16,8 C 89 % 1009,4 hPa 0,0 l/m 0,0 km/h (0 Bft) S-SW 200 0 min 0,000 mm 14 W/m 14,9 C 16,7 C 0,0 km/h (0 Bft) 100 %
02.06.2016 13:30 16,5 C 16,5 C 16,7 C 88 % 1009,5 hPa 0,0 l/m 3,4 km/h (1 Bft) NW 317 0 min 0,000 mm 7 W/m 14,5 C 16,5 C 9,7 km/h (2 Bft) 100 %
02.06.2016 13:40 16,2 C 16,2 C 16,5 C 88 % 1009,5 hPa 0,0 l/m 4,5 km/h (1 Bft) W-NW 298 0 min 0,000 mm 7 W/m 14,2 C 16,2 C 14,5 km/h (3 Bft) 100 %
02.06.2016 13:50 16,1 C 16,1 C 16,2 C 88 % 1009,6 hPa 0,0 l/m 0,3 km/h (0 Bft) W-NW 298 0 min 0,000 mm 14 W/m 14,1 C 16,1 C 8,0 km/h (2 Bft) 100 %
02.06.2016 14:00 15,9 C 15,9 C 16,1 C 89 % 1009,5 hPa 0,0 l/m 0,4 km/h (0 Bft) W-NW 298 0 min 0,025 mm 60 W/m 14,1 C 15,9 C 4,8 km/h (1 Bft) 100 %
02.06.2016 14:10 15,9 C 15,9 C 15,9 C 90 % 1009,7 hPa 0,0 l/m 0,0 km/h (0 Bft) W-NW 298 0 min 0,000 mm 84 W/m 14,3 C 15,9 C 0,0 km/h (0 Bft) 100 %
02.06.2016 14:20 15,9 C 15,9 C 16,0 C 90 % 1009,7 hPa 0,0 l/m 0,0 km/h (0 Bft) W-NW 298 0 min 0,000 mm 102 W/m 14,3 C 15,9 C 1,6 km/h (1 Bft) 100 %
02.06.2016 14:30 15,9 C 15,9 C 16,0 C 90 % 1009,6 hPa 0,0 l/m 0,0 km/h (0 Bft) W-NW 298 10 min 0,000 mm 167 W/m 14,3 C 15,9 C 0,0 km/h (0 Bft) 100 %
02.06.2016 14:40 16,1 C 15,9 C 16,1 C 89 % 1009,4 hPa 0,0 l/m 0,0 km/h (0 Bft) W-NW 298 10 min 0,000 mm 163 W/m 14,3 C 16,1 C 0,0 km/h (0 Bft) 100 %
02.06.2016 14:50 16,2 C 16,1 C 16,2 C 88 % 1009,5 hPa 0,0 l/m 0,0 km/h (0 Bft) W-NW 298 0 min 0,000 mm 146 W/m 14,2 C 16,2 C 1,6 km/h (1 Bft) 100 %
02.06.2016 15:00 16,4 C 16,2 C 16,4 C 89 % 1009,5 hPa 0,0 l/m 1,3 km/h (1 Bft) W-NW 301 0 min 0,077 mm 114 W/m 14,6 C 16,4 C 6,4 km/h (2 Bft) 100 %
02.06.2016 15:10 16,6 C 16,4 C 16,6 C 88 % 1009,5 hPa 0,0 l/m 0,3 km/h (0 Bft) W-NW 301 0 min 0,000 mm 121 W/m 14,6 C 16,6 C 3,2 km/h (1 Bft) 100 %
02.06.2016 15:20 16,7 C 16,6 C 16,7 C 86 % 1009,4 hPa 0,0 l/m 1,3 km/h (1 Bft) W 271 0 min 0,000 mm 109 W/m 14,3 C 16,7 C 8,0 km/h (2 Bft) 100 %
02.06.2016 15:30 16,9 C 16,7 C 16,9 C 85 % 1009,3 hPa 0,0 l/m 0,1 km/h (0 Bft) W 272 0 min 0,000 mm 139 W/m 14,4 C 16,9 C 3,2 km/h (1 Bft) 100 %
02.06.2016 15:40 17,1 C 16,9 C 17,1 C 83 % 1009,3 hPa 0,0 l/m 0,0 km/h (0 Bft) W 272 10 min 0,000 mm 195 W/m 14,2 C 17,1 C 1,6 km/h (1 Bft) 100 %
02.06.2016 15:50 17,4 C 17,1 C 17,4 C 83 % 1009,3 hPa 0,0 l/m 0,9 km/h (0 Bft) W 272 10 min 0,000 mm 250 W/m 14,5 C 17,4 C 8,0 km/h (2 Bft) 100 %
02.06.2016 16:00 17,7 C 17,4 C 17,7 C 82 % 1009,3 hPa 0,0 l/m 1,9 km/h (1 Bft) NW 313 10 min 0,101 mm 260 W/m 14,6 C 17,7 C 9,7 km/h (2 Bft) 100 %
02.06.2016 16:10 17,9 C 17,7 C 17,9 C 82 % 1009,1 hPa 0,0 l/m 1,7 km/h (1 Bft) NW 309 10 min 0,000 mm 241 W/m 14,8 C 17,9 C 8,0 km/h (2 Bft) 100 %
02.06.2016 16:20 18,0 C 17,9 C 18,1 C 80 % 1009,1 hPa 0,0 l/m 0,5 km/h (0 Bft) W-NW 287 10 min 0,000 mm 265 W/m 14,5 C 18,0 C 8,0 km/h (2 Bft) 99 %
02.06.2016 16:30 18,3 C 18,0 C 18,3 C 83 % 1009,1 hPa 0,0 l/m 0,7 km/h (0 Bft) W-NW 296 10 min 0,000 mm 251 W/m 15,4 C 18,3 C 4,8 km/h (1 Bft) 99 %
02.06.2016 16:40 18,2 C 18,2 C 18,3 C 78 % 1009,0 hPa 0,0 l/m 0,0 km/h (0 Bft) W-NW 296 10 min 0,000 mm 202 W/m 14,3 C 18,2 C 1,6 km/h (1 Bft) 100 %
02.06.2016 16:50 18,3 C 18,2 C 18,3 C 79 % 1009,1 hPa 0,0 l/m 0,0 km/h (0 Bft) W-NW 296 10 min 0,000 mm 156 W/m 14,6 C 18,3 C 1,6 km/h (1 Bft) 100 %
02.06.2016 17:00 18,3 C 18,3 C 18,4 C 81 % 1008,9 hPa 0,0 l/m 0,0 km/h (0 Bft) W-NW 296 10 min 0,127 mm 162 W/m 15,0 C 18,3 C 1,6 km/h (1 Bft) 100 %
02.06.2016 17:10 18,4 C 18,3 C 18,4 C 82 % 1009,0 hPa 0,0 l/m 0,0 km/h (0 Bft) W-NW 296 10 min 0,000 mm 163 W/m 15,3 C 18,4 C 1,6 km/h (1 Bft) 100 %
02.06.2016 17:20 18,4 C 18,4 C 18,4 C 81 % 1009,0 hPa 0,0 l/m 0,0 km/h (0 Bft) W-NW 296 0 min 0,000 mm 144 W/m 15,1 C 18,4 C 1,6 km/h (1 Bft) 100 %
02.06.2016 17:30 18,3 C 18,3 C 18,4 C 83 % 1008,9 hPa 0,0 l/m 0,0 km/h (0 Bft) W-NW 296 0 min 0,000 mm 127 W/m 15,4 C 18,3 C 1,6 km/h (1 Bft) 99 %
02.06.2016 17:40 18,2 C 18,2 C 18,3 C 83 % 1008,9 hPa 0,0 l/m 0,0 km/h (0 Bft) W-NW 296 0 min 0,000 mm 125 W/m 15,3 C 18,2 C 1,6 km/h (1 Bft) 99 %
02.06.2016 17:50 18,2 C 18,2 C 18,2 C 81 % 1008,9 hPa 0,0 l/m 0,1 km/h (0 Bft) W-NW 296 0 min 0,000 mm 142 W/m 14,9 C 18,2 C 3,2 km/h (1 Bft) 99 %
02.06.2016 18:00 18,3 C 18,2 C 18,3 C 82 % 1008,8 hPa 0,0 l/m 0,2 km/h (0 Bft) W-NW 296 10 min 0,076 mm 158 W/m 15,2 C 18,3 C 3,2 km/h (1 Bft) 99 %
02.06.2016 18:10 18,3 C 18,2 C 18,3 C 82 % 1008,9 hPa 0,0 l/m 0,0 km/h (0 Bft) W-NW 296 0 min 0,000 mm 146 W/m 15,2 C 18,3 C 1,6 km/h (1 Bft) 100 %
02.06.2016 18:20 18,3 C 18,3 C 18,3 C 82 % 1008,9 hPa 0,0 l/m 0,0 km/h (0 Bft) W-NW 296 0 min 0,000 mm 116 W/m 15,2 C 18,3 C 1,6 km/h (1 Bft) 100 %
02.06.2016 18:30 18,1 C 18,1 C 18,3 C 82 % 1008,9 hPa 0,0 l/m 0,0 km/h (0 Bft) W-NW 296 0 min 0,000 mm 113 W/m 15,0 C 18,1 C 1,6 km/h (1 Bft) 99 %
02.06.2016 18:40 18,0 C 18,0 C 18,1 C 84 % 1009,0 hPa 0,0 l/m 0,1 km/h (0 Bft) W 279 0 min 0,000 mm 91 W/m 15,3 C 18,0 C 3,2 km/h (1 Bft) 100 %
02.06.2016 18:50 17,8 C 17,8 C 18,0 C 84 % 1008,9 hPa 0,0 l/m 1,3 km/h (1 Bft) W-SW 254 0 min 0,000 mm 70 W/m 15,1 C 17,8 C 4,8 km/h (1 Bft) 99 %
02.06.2016 19:00 17,5 C 17,5 C 17,8 C 82 % 1009,0 hPa 0,0 l/m 0,6 km/h (0 Bft) SW 217 0 min 0,051 mm 44 W/m 14,4 C 17,5 C 6,4 km/h (2 Bft) 99 %
02.06.2016 19:10 17,3 C 17,3 C 17,5 C 82 % 1009,1 hPa 0,0 l/m 0,0 km/h (0 Bft) SW 217 0 min 0,000 mm 30 W/m 14,2 C 17,3 C 1,6 km/h (1 Bft) 100 %
02.06.2016 19:20 17,3 C 17,2 C 17,3 C 84 % 1009,1 hPa 0,0 l/m 0,0 km/h (0 Bft) SW 217 0 min 0,000 mm 28 W/m 14,6 C 17,3 C 1,6 km/h (1 Bft) 100 %
02.06.2016 19:30 17,2 C 17,2 C 17,3 C 83 % 1009,1 hPa 0,0 l/m 0,0 km/h (0 Bft) SW 217 0 min 0,000 mm 21 W/m 14,3 C 17,2 C 1,6 km/h (1 Bft) 99 %
02.06.2016 19:40 17,1 C 17,1 C 17,2 C 83 % 1009,1 hPa 0,0 l/m 0,0 km/h (0 Bft) SW 217 0 min 0,000 mm 0 W/m 14,2 C 17,1 C 0,0 km/h (0 Bft) 100 %
02.06.2016 19:50 17,1 C 17,1 C 17,1 C 84 % 1009,1 hPa 0,0 l/m 0,0 km/h (0 Bft) SW 217 0 min 0,000 mm 0 W/m 14,4 C 17,1 C 0,0 km/h (0 Bft) 99 %
02.06.2016 20:00 16,9 C 16,9 C 17,1 C 84 % 1009,1 hPa 0,0 l/m 0,0 km/h (0 Bft) SW 217 0 min 0,000 mm 0 W/m 14,2 C 16,9 C 1,6 km/h (1 Bft) 100 %
02.06.2016 20:10 16,8 C 16,8 C 16,9 C 85 % 1009,0 hPa 0,0 l/m 0,3 km/h (0 Bft) SW 217 0 min 0,000 mm 0 W/m 14,3 C 16,8 C 3,2 km/h (1 Bft) 100 %
02.06.2016 20:20 16,6 C 16,6 C 16,8 C 84 % 1009,1 hPa 0,0 l/m 0,4 km/h (0 Bft) SW 217 0 min 0,000 mm 0 W/m 13,9 C 16,6 C 3,2 km/h (1 Bft) 99 %
02.06.2016 20:30 16,6 C 16,5 C 16,6 C 84 % 1009,1 hPa 0,0 l/m 0,0 km/h (0 Bft) SW 217 0 min 0,000 mm 0 W/m 13,9 C 16,6 C 1,6 km/h (1 Bft) 100 %
02.06.2016 20:40 16,4 C 16,4 C 16,6 C 85 % 1009,1 hPa 0,0 l/m 0,0 km/h (0 Bft) SW 217 0 min 0,000 mm 0 W/m 13,9 C 16,4 C 1,6 km/h (1 Bft) 99 %
02.06.2016 20:50 16,3 C 16,3 C 16,4 C 85 % 1009,1 hPa 0,0 l/m 0,0 km/h (0 Bft) SW 217 0 min 0,000 mm 0 W/m 13,8 C 16,3 C 0,0 km/h (0 Bft) 100 %
02.06.2016 21:00 16,3 C 16,3 C 16,3 C 86 % 1009,3 hPa 0,0 l/m 0,0 km/h (0 Bft) SW 217 0 min 0,000 mm 5 W/m 14,0 C 16,3 C 1,6 km/h (1 Bft) 99 %
02.06.2016 21:10 16,2 C 16,2 C 16,3 C 87 % 1009,5 hPa 0,0 l/m 0,1 km/h (0 Bft) SW 217 0 min 0,000 mm 0 W/m 14,0 C 16,2 C 1,6 km/h (1 Bft) 99 %
02.06.2016 21:20 16,1 C 16,1 C 16,2 C 87 % 1009,6 hPa 0,0 l/m 0,0 km/h (0 Bft) SW 217 0 min 0,000 mm 0 W/m 13,9 C 16,1 C 1,6 km/h (1 Bft) 100 %
02.06.2016 21:30 15,9 C 15,9 C 16,1 C 88 % 1009,5 hPa 0,0 l/m 0,0 km/h (0 Bft) SW 217 0 min 0,000 mm 0 W/m 13,9 C 15,9 C 1,6 km/h (1 Bft) 99 %
02.06.2016 21:40 15,7 C 15,7 C 15,9 C 88 % 1009,7 hPa 0,0 l/m 0,0 km/h (0 Bft) SW 217 0 min 0,000 mm 0 W/m 13,7 C 15,7 C 0,0 km/h (0 Bft) 98 %
02.06.2016 21:50 15,6 C 15,6 C 15,7 C 89 % 1009,7 hPa 0,0 l/m 0,1 km/h (0 Bft) SW 217 0 min 0,000 mm 0 W/m 13,8 C 15,6 C 3,2 km/h (1 Bft) 100 %
02.06.2016 22:00 15,4 C 15,4 C 15,6 C 89 % 1009,8 hPa 0,0 l/m 0,0 km/h (0 Bft) SW 217 0 min 0,000 mm 0 W/m 13,6 C 15,4 C 0,0 km/h (0 Bft) 100 %
02.06.2016 22:10 15,3 C 15,3 C 15,4 C 90 % 1009,8 hPa 0,0 l/m 0,0 km/h (0 Bft) SW 217 0 min 0,000 mm 0 W/m 13,7 C 15,3 C 0,0 km/h (0 Bft) 100 %
02.06.2016 22:20 15,1 C 15,1 C 15,3 C 90 % 1009,8 hPa 0,0 l/m 0,0 km/h (0 Bft) SW 217 0 min 0,000 mm 0 W/m 13,5 C 15,1 C 0,0 km/h (0 Bft) 98 %
02.06.2016 22:30 15,1 C 15,1 C 15,1 C 90 % 1009,8 hPa 0,0 l/m 0,0 km/h (0 Bft) SW 217 0 min 0,000 mm 0 W/m 13,5 C 15,1 C 0,0 km/h (0 Bft) 100 %
02.06.2016 22:40 15,1 C 15,1 C 15,1 C 90 % 1009,8 hPa 0,0 l/m 0,0 km/h (0 Bft) SW 217 0 min 0,000 mm 0 W/m 13,5 C 15,1 C 0,0 km/h (0 Bft) 99 %
02.06.2016 22:50 14,9 C 14,9 C 15,1 C 90 % 1009,9 hPa 0,0 l/m 0,0 km/h (0 Bft) SW 217 0 min 0,000 mm 0 W/m 13,3 C 14,9 C 0,0 km/h (0 Bft) 99 %
02.06.2016 23:00 14,8 C 14,8 C 14,9 C 90 % 1010,0 hPa 0,0 l/m 0,0 km/h (0 Bft) SW 217 0 min 0,000 mm 0 W/m 13,2 C 14,8 C 1,6 km/h (1 Bft) 98 %
02.06.2016 23:10 14,7 C 14,7 C 14,8 C 91 % 1010,0 hPa 0,0 l/m 0,0 km/h (0 Bft) SW 217 0 min 0,000 mm 0 W/m 13,2 C 14,7 C 0,0 km/h (0 Bft) 98 %
02.06.2016 23:20 14,7 C 14,7 C 14,7 C 91 % 1010,0 hPa 0,0 l/m 0,0 km/h (0 Bft) SW 217 0 min 0,000 mm 0 W/m 13,2 C 14,7 C 0,0 km/h (0 Bft) 98 %
02.06.2016 23:30 14,6 C 14,6 C 14,7 C 91 % 1010,0 hPa 0,0 l/m 0,0 km/h (0 Bft) SW 217 0 min 0,000 mm 0 W/m 13,1 C 14,6 C 0,0 km/h (0 Bft) 97 %
02.06.2016 23:40 14,6 C 14,6 C 14,6 C 91 % 1009,9 hPa 0,0 l/m 0,0 km/h (0 Bft) SW 217 0 min 0,000 mm 0 W/m 13,1 C 14,6 C 0,0 km/h (0 Bft) 98 %
02.06.2016 23:50 14,5 C 14,5 C 14,6 C 91 % 1010,0 hPa 0,0 l/m 0,0 km/h (0 Bft) SW 217 0 min 0,000 mm 0 W/m 13,0 C 14,5 C 0,0 km/h (0 Bft) 97 %
_ Min-Zeit 04:50 04:50 03:20 16:40 04:40 - 05:10 - - - - - 05:00 02:30 06:10 06:10
Minimum _ 13,6 C 13,6 C 13,7 C 78 % 1008,7 hPa - 0,0 km/h (0 Bft) - - - - - 12,0 C 10,5 C 0,0 km/h (0 Bft) 90 %
_ Max-Zeit 17:00 17:20 17:00 00:00 00:00 00:00 02:30 - - 08:40 12:00 11:20 16:30 17:10 02:30 00:00
Maximum _ 18,4 C 18,4 C 18,4 C 91 % 1010,2 hPa 0,4 l/m 12,9 km/h
S-SW (3 Bft)
- - 10 min 0,127 mm 383 W/m 15,4 C 18,4 C 30,6 km/h
S-SW (5 Bft)
100 %
Durchschnitt _ 15,5 C 15,4 C 15,5 C 88 % 1009,3 hPa #5,6 l/m 1,5 km/h (1 Bft) S - #5:10 h #0,965 mm 138 W/m 13,6 C 15,4 C 5,7 km/h (1 Bft) 99 %
PRIVATE WETTERSTATION BILLIGHEIM-ALLFELD - www.neckar-odenwald-wetter.de - Holger Sonntag